Home   Weather   St. Paul   Past weeks

Flag for USA Past Weather in St. Paul, Minnesota, USA — Yesterday and Last 2 Weeks

Now
73 °F

Clear.


Feels Like: 71 °F
Forecast: 67 / 83 °F
Wind: 3 mph from East

Location: St. Paul Downtown Holman Field

Current Time: Jul 20, 2017 at 11:50:26 pm

Latest Report: Jul 20, 2017 at 10:53 pm


Visibility: 7 mi

Pressure: 29.94 "Hg

Humidity: 88%

Dew Point: 69 °F

Location of St. PaulLocation

Past Weather in St. Paul — Graph

°F

St. Paul Temperature Yesterday

Maximum temperature yesterday: 81 °F (at 12:53 pm)
Minimum temperature yesterday: 61 °F (at 5:53 am)
Average temperature yesterday: 70 °F

High & Low Weather Summary for the Past Weeks

 TemperatureHumidityPressure
High93 °F (Jul 15, 2:53 pm)100% (Jul 17, 10:26 pm)30.22 "Hg (Jul 17, 10:26 pm)
Low57 °F (Jul 13, 6:53 am)35% (Jul 8, 4:53 pm)29.69 "Hg (Jul 12, 2:01 am)
Average73 °F73%29.96 "Hg
* Reported Jul 5 9:53 pm — Jul 20 9:53 pm, St. Paul. Weather by CustomWeather, © 2017

Note: Actual official high and low records may vary slightly from our data, if they occured in-between our weather recording intervals... More about our weather records

Advertising

St. Paul Weather History for the Previous 24 Hours

Scroll right to see more
 ConditionsComfort  
Time TempWeatherWind HumidityBarometerVisibility
9:53 pm
Thu, Jul 20
73 °FClear.No wind90%29.94 "Hg7 mi
8:53 pm77 °FClear.3 mph71%29.93 "Hg6 mi
7:53 pm82 °FSunny.3 mph65%29.94 "Hg7 mi
6:53 pm86 °FSunny.6 mph49%29.95 "Hg10 mi
5:53 pm87 °FSunny.6 mph46%29.97 "Hg10 mi
4:53 pm87 °FSunny.8 mph46%29.98 "Hg10 mi
3:53 pm86 °FSunny.N/A49%29.99 "Hg10 mi
2:53 pm85 °FSunny.6 mph59%30.00 "Hg10 mi
1:53 pm83 °FSunny.6 mph65%30.00 "Hg10 mi
12:53 pm81 °FSunny.No wind69%30.00 "Hg10 mi
11:53 am79 °FSunny.No wind72%30.00 "Hg10 mi
10:53 am77 °FSunny.5 mph85%30.01 "Hg8 mi
9:53 am76 °FSunny.No wind82%29.99 "Hg10 mi
8:53 am73 °FSunny.No wind90%30.00 "Hg10 mi
8:00 am69 °FFog.No wind100%30.00 "Hg5 mi
6:53 am68 °FFog.3 mph100%29.97 "Hg5 mi
5:53 am67 °FFog.3 mph100%29.97 "Hg3 mi
5:30 am67 °FFog.3 mph100%29.97 "Hg4 mi
5:00 am68 °FFog.No wind100%29.94 "Hg0 mi
4:30 am67 °FFog.No wind100%29.94 "Hg1 mi
4:22 am68 °FFog.No wind100%29.94 "Hg3 mi
3:53 am68 °FFog.No wind100%29.93 "Hg2 mi
2:53 am69 °FPartly cloudy.3 mph100%29.91 "Hg7 mi
1:53 am70 °FPassing clouds.No wind97%29.90 "Hg10 mi
12:53 am69 °FOvercast.3 mph100%29.91 "Hg10 mi
12:11 am70 °FLight rain. Mostly cloudy.No wind97%29.96 "Hg10 mi
12:02 am70 °FThundershowers. Mostly cloudy.5 mph97%29.96 "Hg10 mi
11:33 pm
Wed, Jul 19
69 °FPartly cloudy.No wind100%29.93 "Hg10 mi
11:03 pm69 °FMostly cloudy.No wind100%29.93 "Hg10 mi
Weather by CustomWeather, © 2017

See weather overviewHow to use our weather pages